QPF
0.00 0.00 0.00 0.00 0.00 0.00 0.00 0.02 0.03 0.03 0.03 0.03 0.03 0.02 0.01 0.01 0.00 0.00 0.00 0.00 0.00 0.00 0.00 0.00 0.00 0.00 0.01 0.01 0.01 0.00 0.00 0.00 0.00 0.00 0.01 0.01 0.02 0.04 0.08 0.12 0.16 0.17 0.13
0.00 0.00 0.00 0.00 0.00 0.00 0.00 0.01 0.02 0.03 0.03 0.03 0.03 0.02 0.02 0.01 0.00 0.00 0.00 0.00 0.00 0.00 0.00 0.00 0.00 0.00 0.00 0.00 0.00 0.00 0.00 0.00 0.01 0.01 0.02 0.02 0.03 0.05 0.09 0.13 0.15 0.16 0.11
0.00 0.00 0.00 0.00 0.00 0.00 0.00 0.00 0.01 0.02 0.02 0.02 0.02 0.02 0.01 0.01 0.00 0.00 0.00 0.00 0.00 0.00 0.00 0.00 0.00 0.00 0.00 0.00 0.00 0.00 0.00 0.00 0.01 0.01 0.03 0.07 0.04 0.04 0.07 0.12 0.16 0.13 0.12
0.00 0.00 0.00 0.00 0.00 0.00 0.00 0.00 0.01 0.01 0.01 0.01 0.01 0.01 0.01 0.00 0.00 0.00 0.00 0.00 0.00 0.00 0.00 0.00 0.00 0.00 0.00 0.00 0.00 0.00 0.00 0.00 0.01 0.01 0.02 0.03 0.03 0.03 0.06 0.09 0.11 0.11 0.12
0.00 0.00 0.00 0.01 0.00 0.00 0.00 0.01 0.01 0.01 0.01 0.01 0.01 0.01 0.00 0.00 0.00 0.00 0.00 0.00 0.01 0.01 0.01 0.00 0.00 0.00 0.00 0.00 0.00 0.00 0.00 0.01 0.01 0.01 0.00 0.02 0.05 0.04 0.05 0.08 0.09 0.11 0.09
0.00 0.00 0.01 0.01 0.01 0.00 0.00 0.01 0.01 0.02 0.02 0.01 0.01 0.01 0.00 0.00 0.00 0.00 0.00 0.01 0.01 0.02 0.02 0.01 0.02 0.01 0.01 0.00 0.00 0.00 0.00 0.00 0.01 0.01 0.00 0.01 0.04 0.03 0.05 0.07 0.09 0.11 0.07
0.00 0.00 0.01 0.01 0.01 0.01 0.01 0.02 0.02 0.03 0.03 0.02 0.02 0.01 0.01 0.01 0.01 0.01 0.01 0.02 0.02 0.03 0.03 0.03 0.03 0.03 0.02 0.01 0.01 0.00 0.00 0.01 0.02 0.02 0.01 0.01 0.03 0.02 0.04 0.07 0.10 0.10 0.06
0.00 0.00 0.01 0.01 0.01 0.01 0.02 0.02 0.03 0.03 0.03 0.03 0.03 0.02 0.02 0.02 0.02 0.02 0.02 0.03 0.04 0.03 0.03 0.03 0.03 0.03 0.03 0.02 0.01 0.01 0.01 0.01 0.03 0.02 0.02 0.02 0.01 0.01 0.03 0.05 0.07 0.08 0.07
0.00 0.01 0.01 0.01 0.01 0.01 0.02 0.03 0.03 0.03 0.04 0.04 0.03 0.03 0.02 0.02 0.03 0.03 0.03 0.04 0.05 0.05 0.03 0.03 0.03 0.04 0.04 0.03 0.02 0.01 0.01 0.02 0.05 0.05 0.02 0.03 0.02 0.01 0.03 0.03 0.04 0.06 0.07
0.01 0.01 0.01 0.02 0.03 0.03 0.03 0.03 0.03 0.04 0.04 0.04 0.03 0.02 0.02 0.03 0.03 0.03 0.03 0.02 0.03 0.05 0.05 0.05 0.05 0.06 0.06 0.04 0.03 0.02 0.02 0.02 0.03 0.03 0.02 0.02 0.01 0.02 0.04 0.04 0.03 0.03 0.05
0.01 0.01 0.01 0.02 0.02 0.03 0.04 0.03 0.03 0.04 0.06 0.05 0.05 0.05 0.05 0.06 0.06 0.06 0.04 0.03 0.03 0.05 0.06 0.07 0.08 0.10 0.10 0.07 0.06 0.04 0.03 0.02 0.02 0.03 0.03 0.02 0.02 0.04 0.07 0.07 0.05 0.03 0.03
0.01 0.01 0.02 0.02 0.03 0.04 0.04 0.05 0.07 0.09 0.12 0.11 0.11 0.11 0.13 0.15 0.14 0.11 0.08 0.06 0.05 0.07 0.08 0.09 0.08 0.08 0.10 0.10 0.11 0.08 0.04 0.03 0.03 0.02 0.02 0.01 0.01 0.04 0.08 0.10 0.09 0.05 0.04
0.01 0.02 0.03 0.02 0.04 0.07 0.11 0.12 0.15 0.20 0.21 0.20 0.18 0.18 0.23 0.23 0.21 0.20 0.19 0.15 0.12 0.09 0.09 0.11 0.11 0.10 0.13 0.15 0.15 0.10 0.06 0.05 0.02 0.01 0.02 0.02 0.01 0.03 0.06 0.10 0.11 0.09 0.06
0.04 0.06 0.07 0.08 0.08 0.10 0.13 0.16 0.21 0.23 0.25 0.23 0.16 0.13 0.17 0.21 0.21 0.21 0.24 0.23 0.16 0.13 0.12 0.13 0.13 0.13 0.13 0.14 0.13 0.13 0.10 0.08 0.05 0.03 0.02 0.02 0.02 0.02 0.04 0.09 0.12 0.12 0.10
0.08 0.09 0.11 0.11 0.10 0.11 0.12 0.14 0.17 0.16 0.15 0.14 0.09 0.08 0.09 0.13 0.15 0.16 0.16 0.15 0.12 0.12 0.11 0.12 0.10 0.10 0.10 0.11 0.10 0.10 0.09 0.08 0.07 0.07 0.05 0.03 0.02 0.02 0.02 0.05 0.09 0.10 0.11
0.09 0.09 0.10 0.10 0.09 0.09 0.09 0.08 0.08 0.06 0.05 0.05 0.05 0.05 0.05 0.06 0.08 0.10 0.10 0.09 0.09 0.09 0.08 0.07 0.07 0.06 0.07 0.07 0.05 0.06 0.08 0.09 0.07 0.06 0.05 0.05 0.03 0.02 0.02 0.03 0.06 0.09 0.11
0.08 0.09 0.10 0.10 0.07 0.05 0.04 0.03 0.02 0.01 0.01 0.01 0.01 0.01 0.01 0.02 0.03 0.04 0.05 0.06 0.06 0.05 0.04 0.04 0.04 0.03 0.03 0.02 0.02 0.03 0.05 0.06 0.06 0.06 0.07 0.07 0.04 0.02 0.02 0.02 0.03 0.05 0.08
0.04 0.05 0.04 0.03 0.02 0.01 0.01 0.01 0.00 0.00 0.00 0.00 0.00 0.00 0.00 0.01 0.01 0.01 0.02 0.02 0.02 0.01 0.02 0.02 0.01 0.01 0.01 0.01 0.01 0.01 0.02 0.03 0.04 0.06 0.08 0.07 0.06 0.03 0.03 0.02 0.03 0.03 0.04
0.02 0.02 0.02 0.01 0.00 0.00 0.00 0.00 0.00 0.00 0.00 0.00 0.00 0.00 0.00 0.00 0.00 0.01 0.01 0.01 0.01 0.01 0.01 0.01 0.00 0.01 0.01 0.01 0.01 0.01 0.01 0.01 0.02 0.04 0.05 0.06 0.05 0.04 0.04 0.03 0.03 0.03 0.04
0.01 0.01 0.00 0.00 0.00 0.00 0.00 0.00 0.00 0.00 0.00 0.00 0.00 0.00 0.00 0.00 0.00 0.00 0.01 0.01 0.00 0.00 0.00 0.01 0.01 0.01 0.01 0.01 0.01 0.00 0.00 0.00 0.01 0.03 0.04 0.05 0.06 0.05 0.04 0.04 0.05 0.03 0.03
0.00 0.00 0.00 0.00 0.00 0.00 0.00 0.00 0.00 0.00 0.00 0.00 0.00 0.00 0.00 0.00 0.00 0.00 0.00 0.01 0.00 0.00 0.00 0.00 0.00 0.00 0.01 0.02 0.01 0.01 0.01 0.01 0.01 0.02 0.04 0.06 0.06 0.06 0.06 0.06 0.06 0.06 0.03
0.00 0.00 0.00 0.00 0.00 0.00 0.00 0.00 0.00 0.00 0.00 0.00 0.00 0.00 0.00 0.00 0.00 0.00 0.00 0.00 0.00 0.01 0.01 0.01 0.01 0.00 0.00 0.01 0.02 0.02 0.02 0.02 0.05 0.05 0.04 0.05 0.06 0.08 0.09 0.08 0.08 0.08 0.06
0.00 0.00 0.00 0.00 0.00 0.00 0.00 0.00 0.00 0.00 0.00 0.00 0.00 0.00 0.00 0.00 0.00 0.00 0.00 0.00 0.00 0.00 0.00 0.01 0.01 0.01 0.00 0.01 0.02 0.03 0.04 0.04 0.03 0.05 0.07 0.07 0.09 0.11 0.12 0.11 0.09 0.09 0.08
0.00 0.00 0.00 0.00 0.00 0.00 0.00 0.00 0.00 0.00 0.00 0.00 0.00 0.00 0.00 0.00 0.00 0.00 0.00 0.00 0.00 0.00 0.00 0.00 0.00 0.01 0.01 0.00 0.01 0.02 0.04 0.05 0.05 0.03 0.04 0.07 0.09 0.08 0.09 0.11 0.12 0.12 0.11
0.00 0.00 0.00 0.01 0.01 0.00 0.00 0.00 0.00 0.00 0.00 0.00 0.00 0.00 0.00 0.00 0.00 0.00 0.00 0.00 0.00 0.00 0.00 0.00 0.00 0.00 0.01 0.01 0.01 0.01 0.01 0.03 0.04 0.05 0.03 0.06 0.08 0.09 0.07 0.07 0.09 0.10 0.11
0.00 0.00 0.00 0.01 0.01 0.00 0.00 0.00 0.00 0.00 0.00 0.00 0.00 0.00 0.00 0.00 0.00 0.00 0.00 0.00 0.00 0.00 0.00 0.00 0.00 0.00 0.01 0.01 0.01 0.01 0.01 0.02 0.02 0.04 0.04 0.06 0.09 0.10 0.10 0.09 0.08 0.09 0.10
MSLP
1012.88 1013.09 1013.39 1013.74 1014.10 1014.42 1014.65 1014.78 1014.83 1014.82 1014.82 1014.86 1014.99 1015.23 1015.55 1015.92 1016.29 1016.63 1016.88 1017.05 1017.13 1017.15 1017.15 1017.14 1017.15 1017.19 1017.25 1017.30 1017.34 1017.35 1017.34 1017.29 1017.24 1017.19 1017.18 1017.21 1017.28 1017.39 1017.54 1017.70 1017.86 1018.02 1018.17
1012.95 1013.18 1013.51 1013.89 1014.29 1014.65 1014.91 1015.07 1015.11 1015.10 1015.07 1015.10 1015.22 1015.44 1015.75 1016.12 1016.49 1016.82 1017.07 1017.21 1017.28 1017.28 1017.27 1017.27 1017.31 1017.37 1017.46 1017.54 1017.60 1017.61 1017.57 1017.49 1017.41 1017.33 1017.30 1017.32 1017.41 1017.55 1017.73 1017.93 1018.14 1018.33 1018.50
1012.96 1013.20 1013.54 1013.96 1014.41 1014.82 1015.14 1015.34 1015.42 1015.43 1015.41 1015.43 1015.53 1015.72 1016.01 1016.35 1016.68 1016.97 1017.18 1017.30 1017.34 1017.34 1017.34 1017.36 1017.43 1017.54 1017.67 1017.79 1017.85 1017.86 1017.79 1017.68 1017.55 1017.43 1017.38 1017.39 1017.49 1017.66 1017.88 1018.12 1018.36 1018.59 1018.79
1012.95 1013.18 1013.53 1013.98 1014.47 1014.94 1015.33 1015.59 1015.74 1015.78 1015.79 1015.81 1015.89 1016.06 1016.30 1016.58 1016.85 1017.08 1017.24 1017.32 1017.34 1017.34 1017.36 1017.42 1017.54 1017.69 1017.87 1018.00 1018.08 1018.07 1017.98 1017.83 1017.65 1017.51 1017.42 1017.43 1017.54 1017.74 1017.99 1018.27 1018.56 1018.82 1019.05
1012.95 1013.15 1013.50 1013.97 1014.51 1015.04 1015.49 1015.83 1016.03 1016.12 1016.16 1016.18 1016.25 1016.38 1016.57 1016.79 1016.99 1017.16 1017.26 1017.30 1017.30 1017.30 1017.34 1017.44 1017.60 1017.81 1018.01 1018.17 1018.25 1018.22 1018.10 1017.92 1017.72 1017.55 1017.45 1017.47 1017.59 1017.81 1018.09 1018.41 1018.73 1019.02 1019.28
1013.00 1013.17 1013.51 1014.00 1014.57 1015.14 1015.64 1016.02 1016.27 1016.40 1016.46 1016.50 1016.55 1016.65 1016.79 1016.94 1017.08 1017.18 1017.23 1017.23 1017.22 1017.23 1017.29 1017.42 1017.62 1017.86 1018.08 1018.25 1018.32 1018.28 1018.14 1017.94 1017.72 1017.55 1017.47 1017.50 1017.64 1017.89 1018.20 1018.54 1018.88 1019.19 1019.47
1013.11 1013.26 1013.60 1014.08 1014.66 1015.24 1015.77 1016.17 1016.44 1016.59 1016.65 1016.69 1016.73 1016.80 1016.90 1017.01 1017.10 1017.15 1017.16 1017.14 1017.11 1017.13 1017.20 1017.36 1017.58 1017.83 1018.06 1018.22 1018.28 1018.23 1018.08 1017.87 1017.66 1017.51 1017.46 1017.52 1017.70 1017.98 1018.31 1018.67 1019.01 1019.33 1019.61
1013.31 1013.45 1013.77 1014.24 1014.80 1015.37 1015.87 1016.25 1016.51 1016.65 1016.71 1016.74 1016.77 1016.83 1016.90 1016.98 1017.03 1017.05 1017.03 1016.99 1016.96 1016.98 1017.07 1017.24 1017.46 1017.71 1017.93 1018.07 1018.11 1018.05 1017.90 1017.70 1017.53 1017.42 1017.42 1017.54 1017.76 1018.07 1018.42 1018.77 1019.11 1019.41 1019.67
1013.61 1013.74 1014.04 1014.49 1015.00 1015.51 1015.95 1016.28 1016.49 1016.60 1016.64 1016.66 1016.68 1016.72 1016.78 1016.84 1016.88 1016.87 1016.84 1016.79 1016.77 1016.79 1016.88 1017.05 1017.27 1017.50 1017.70 1017.82 1017.84 1017.76 1017.61 1017.44 1017.31 1017.26 1017.33 1017.51 1017.79 1018.13 1018.50 1018.85 1019.16 1019.43 1019.67
1013.97 1014.12 1014.40 1014.80 1015.24 1015.67 1016.02 1016.27 1016.41 1016.46 1016.47 1016.47 1016.49 1016.53 1016.59 1016.64 1016.67 1016.66 1016.61 1016.56 1016.53 1016.56 1016.65 1016.82 1017.02 1017.23 1017.40 1017.48 1017.48 1017.39 1017.25 1017.11 1017.03 1017.04 1017.18 1017.43 1017.76 1018.14 1018.52 1018.87 1019.16 1019.40 1019.60
1014.40 1014.56 1014.83 1015.18 1015.53 1015.85 1016.10 1016.24 1016.30 1016.30 1016.28 1016.26 1016.28 1016.32 1016.38 1016.43 1016.44 1016.42 1016.37 1016.32 1016.29 1016.31 1016.40 1016.56 1016.74 1016.93 1017.06 1017.12 1017.08 1016.98 1016.84 1016.73 1016.69 1016.76 1016.96 1017.27 1017.65 1018.07 1018.46 1018.80 1019.08 1019.29 1019.47
1014.87 1015.06 1015.31 1015.59 1015.86 1016.07 1016.20 1016.24 1016.22 1016.17 1016.12 1016.09 1016.11 1016.15 1016.21 1016.25 1016.26 1016.22 1016.16 1016.09 1016.05 1016.07 1016.16 1016.30 1016.47 1016.63 1016.74 1016.76 1016.70 1016.57 1016.43 1016.32 1016.31 1016.42 1016.66 1017.02 1017.44 1017.89 1018.30 1018.64 1018.91 1019.11 1019.28
1015.36 1015.57 1015.80 1016.02 1016.21 1016.32 1016.35 1016.31 1016.22 1016.13 1016.06 1016.03 1016.04 1016.09 1016.14 1016.16 1016.15 1016.09 1016.00 1015.91 1015.86 1015.87 1015.95 1016.08 1016.24 1016.38 1016.45 1016.44 1016.35 1016.20 1016.04 1015.92 1015.91 1016.03 1016.29 1016.67 1017.12 1017.58 1018.01 1018.37 1018.64 1018.85 1019.03
1015.85 1016.07 1016.28 1016.45 1016.56 1016.59 1016.55 1016.45 1016.33 1016.21 1016.14 1016.11 1016.13 1016.16 1016.19 1016.19 1016.14 1016.05 1015.93 1015.81 1015.74 1015.73 1015.80 1015.92 1016.06 1016.18 1016.23 1016.19 1016.06 1015.88 1015.69 1015.54 1015.51 1015.61 1015.86 1016.23 1016.68 1017.15 1017.58 1017.96 1018.26 1018.49 1018.70
1016.29 1016.52 1016.71 1016.84 1016.90 1016.88 1016.80 1016.67 1016.54 1016.43 1016.36 1016.33 1016.35 1016.37 1016.38 1016.34 1016.24 1016.10 1015.94 1015.79 1015.69 1015.67 1015.71 1015.82 1015.94 1016.04 1016.07 1016.00 1015.83 1015.61 1015.37 1015.18 1015.10 1015.16 1015.37 1015.70 1016.13 1016.58 1017.02 1017.41 1017.74 1018.01 1018.25
1016.66 1016.88 1017.05 1017.16 1017.20 1017.16 1017.08 1016.96 1016.84 1016.75 1016.69 1016.68 1016.68 1016.68 1016.65 1016.56 1016.42 1016.23 1016.02 1015.84 1015.71 1015.66 1015.69 1015.77 1015.88 1015.95 1015.94 1015.84 1015.64 1015.38 1015.09 1014.85 1014.70 1014.69 1014.83 1015.10 1015.47 1015.89 1016.32 1016.71 1017.06 1017.37 1017.66
1016.92 1017.13 1017.29 1017.39 1017.43 1017.41 1017.35 1017.27 1017.19 1017.12 1017.09 1017.07 1017.06 1017.02 1016.95 1016.81 1016.62 1016.39 1016.15 1015.93 1015.78 1015.70 1015.71 1015.77 1015.84 1015.88 1015.85 1015.71 1015.47 1015.16 1014.83 1014.52 1014.30 1014.21 1014.26 1014.45 1014.75 1015.11 1015.50 1015.88 1016.24 1016.58 1016.91
1017.06 1017.24 1017.39 1017.50 1017.57 1017.59 1017.58 1017.56 1017.52 1017.49 1017.47 1017.45 1017.41 1017.34 1017.22 1017.04 1016.81 1016.55 1016.28 1016.05 1015.88 1015.78 1015.76 1015.78 1015.82 1015.82 1015.75 1015.58 1015.31 1014.96 1014.57 1014.21 1013.91 1013.73 1013.69 1013.78 1013.98 1014.27 1014.60 1014.96 1015.31 1015.66 1016.02
1017.05 1017.21 1017.37 1017.50 1017.61 1017.69 1017.75 1017.78 1017.80 1017.80 1017.78 1017.75 1017.68 1017.57 1017.42 1017.21 1016.96 1016.68 1016.41 1016.18 1016.00 1015.88 1015.83 1015.82 1015.82 1015.77 1015.66 1015.45 1015.15 1014.76 1014.34 1013.93 1013.56 1013.30 1013.16 1013.14 1013.24 1013.43 1013.69 1013.99 1014.31 1014.66 1015.03
1016.92 1017.06 1017.22 1017.38 1017.55 1017.70 1017.83 1017.92 1017.98 1018.01 1018.00 1017.94 1017.84 1017.70 1017.52 1017.29 1017.04 1016.78 1016.53 1016.31 1016.13 1016.01 1015.94 1015.89 1015.83 1015.74 1015.58 1015.34 1015.00 1014.60 1014.15 1013.70 1013.28 1012.94 1012.71 1012.58 1012.57 1012.66 1012.82 1013.05 1013.33 1013.65 1014.01
1016.66 1016.79 1016.97 1017.17 1017.40 1017.62 1017.81 1017.97 1018.07 1018.11 1018.09 1018.02 1017.89 1017.73 1017.53 1017.31 1017.08 1016.85 1016.64 1016.45 1016.29 1016.17 1016.07 1015.98 1015.88 1015.74 1015.54 1015.26 1014.91 1014.49 1014.02 1013.55 1013.09 1012.70 1012.38 1012.15 1012.03 1012.01 1012.07 1012.22 1012.43 1012.71 1013.05
1016.32 1016.46 1016.65 1016.90 1017.18 1017.46 1017.72 1017.92 1018.05 1018.10 1018.08 1017.99 1017.85 1017.67 1017.48 1017.28 1017.08 1016.90 1016.74 1016.59 1016.47 1016.35 1016.23 1016.11 1015.96 1015.78 1015.54 1015.24 1014.87 1014.45 1013.99 1013.50 1013.03 1012.59 1012.20 1011.89 1011.67 1011.54 1011.51 1011.56 1011.70 1011.92 1012.22
1015.93 1016.08 1016.31 1016.60 1016.92 1017.25 1017.55 1017.79 1017.95 1018.01 1017.99 1017.89 1017.74 1017.57 1017.39 1017.22 1017.08 1016.95 1016.85 1016.75 1016.65 1016.54 1016.41 1016.26 1016.08 1015.86 1015.59 1015.27 1014.91 1014.50 1014.05 1013.58 1013.10 1012.63 1012.20 1011.82 1011.51 1011.29 1011.16 1011.12 1011.18 1011.35 1011.60
1015.52 1015.71 1015.96 1016.29 1016.65 1017.01 1017.34 1017.61 1017.78 1017.86 1017.83 1017.74 1017.60 1017.44 1017.29 1017.16 1017.06 1016.99 1016.94 1016.88 1016.81 1016.71 1016.58 1016.40 1016.20 1015.95 1015.67 1015.35 1015.00 1014.61 1014.19 1013.74 1013.27 1012.80 1012.34 1011.91 1011.54 1011.23 1011.02 1010.91 1010.90 1010.99 1011.19
1015.13 1015.36 1015.64 1015.99 1016.37 1016.75 1017.09 1017.38 1017.56 1017.65 1017.64 1017.56 1017.44 1017.30 1017.18 1017.08 1017.03 1017.00 1016.98 1016.96 1016.91 1016.82 1016.68 1016.49 1016.27 1016.02 1015.74 1015.43 1015.11 1014.75 1014.37 1013.96 1013.51 1013.04 1012.57 1012.12 1011.70 1011.34 1011.06 1010.88 1010.80 1010.83 1010.97
1014.79 1015.05 1015.35 1015.71 1016.09 1016.47 1016.82 1017.11 1017.31 1017.41 1017.42 1017.36 1017.25 1017.14 1017.04 1016.98 1016.95 1016.95 1016.95 1016.94 1016.90 1016.81 1016.67 1016.49 1016.26 1016.01 1015.75 1015.47 1015.18 1014.87 1014.53 1014.16 1013.74 1013.30 1012.83 1012.37 1011.92 1011.53 1011.21 1010.97 1010.84 1010.81 1010.88
Thickness
5821 5815 5804 5801 5798 5796 5795 5794 5792 5790 5788 5786 5783 5781 5778 5776 5773 5771 5769 5767 5764 5763 5761 5760 5759 5758 5757 5757 5756 5755 5753 5753 5752 5752 5751 5751 5750 5749 5748 5747 5746 5745 5742
5821 5812 5802 5800 5797 5795 5793 5791 5790 5788 5786 5783 5781 5779 5776 5774 5771 5769 5767 5765 5763 5761 5760 5758 5757 5757 5756 5755 5754 5753 5752 5751 5751 5751 5751 5750 5749 5748 5747 5747 5746 5744 5741
5818 5809 5801 5798 5795 5793 5791 5789 5787 5785 5783 5780 5778 5776 5773 5771 5769 5767 5765 5763 5761 5760 5758 5757 5756 5755 5754 5753 5752 5752 5751 5750 5750 5750 5751 5752 5749 5746 5746 5746 5744 5742 5740
5815 5807 5801 5794 5792 5790 5788 5786 5784 5781 5779 5777 5774 5772 5770 5767 5766 5764 5762 5761 5759 5758 5756 5755 5754 5753 5752 5751 5750 5750 5749 5749 5749 5750 5754 5754 5751 5745 5744 5744 5742 5741 5739
5811 5805 5796 5791 5788 5786 5784 5782 5780 5778 5775 5773 5770 5768 5766 5764 5762 5761 5760 5758 5757 5756 5755 5753 5752 5751 5750 5749 5748 5748 5747 5747 5748 5750 5754 5752 5748 5743 5742 5742 5741 5739 5738
5807 5802 5793 5787 5784 5781 5779 5777 5775 5773 5771 5769 5767 5764 5763 5761 5759 5758 5757 5756 5755 5754 5753 5751 5750 5749 5747 5746 5745 5745 5745 5746 5747 5753 5751 5751 5748 5742 5741 5740 5739 5738 5737
5806 5800 5790 5783 5780 5777 5774 5772 5770 5768 5766 5764 5763 5761 5759 5758 5757 5756 5755 5754 5753 5752 5751 5749 5748 5747 5745 5744 5743 5743 5743 5743 5748 5751 5749 5749 5745 5740 5739 5738 5738 5737 5736
5803 5797 5786 5779 5776 5773 5770 5768 5766 5764 5762 5761 5759 5757 5756 5755 5754 5753 5752 5751 5750 5749 5748 5747 5746 5745 5743 5742 5741 5740 5740 5740 5744 5748 5748 5748 5742 5739 5738 5737 5736 5735 5735
5799 5793 5785 5780 5773 5768 5766 5764 5762 5760 5758 5757 5755 5754 5753 5752 5751 5750 5750 5749 5748 5747 5746 5745 5744 5743 5741 5740 5739 5738 5737 5737 5741 5744 5746 5745 5740 5737 5736 5735 5735 5734 5734
5790 5787 5781 5779 5774 5769 5764 5759 5757 5755 5754 5753 5751 5750 5750 5749 5748 5747 5747 5746 5745 5745 5744 5743 5742 5741 5739 5738 5737 5735 5735 5734 5739 5742 5743 5743 5739 5736 5735 5734 5734 5733 5733
5780 5779 5777 5773 5767 5764 5762 5757 5754 5752 5750 5749 5748 5747 5745 5747 5748 5746 5745 5743 5742 5741 5741 5740 5739 5738 5737 5736 5735 5734 5733 5735 5740 5741 5741 5739 5736 5735 5734 5733 5733 5732 5732
5771 5769 5767 5765 5761 5758 5756 5752 5750 5748 5746 5745 5745 5744 5743 5742 5741 5742 5740 5739 5738 5738 5737 5737 5737 5736 5735 5737 5736 5733 5734 5736 5738 5739 5738 5735 5733 5732 5732 5732 5732 5731 5731
5767 5763 5761 5758 5753 5751 5748 5745 5743 5742 5740 5740 5739 5738 5738 5737 5737 5737 5736 5735 5735 5735 5736 5736 5736 5736 5736 5736 5736 5735 5735 5736 5736 5738 5738 5733 5731 5730 5730 5731 5731 5731 5730
5759 5755 5754 5751 5747 5744 5742 5740 5738 5738 5736 5735 5734 5733 5734 5735 5734 5733 5732 5732 5732 5733 5732 5732 5733 5733 5732 5732 5732 5732 5733 5732 5734 5734 5735 5732 5729 5728 5728 5729 5730 5730 5730
5753 5749 5747 5744 5741 5738 5736 5735 5734 5732 5732 5731 5729 5729 5728 5731 5731 5730 5729 5728 5729 5729 5728 5728 5728 5728 5728 5728 5729 5730 5731 5731 5731 5732 5731 5729 5727 5726 5726 5727 5728 5729 5729
5746 5743 5741 5738 5736 5733 5732 5730 5729 5729 5726 5726 5725 5723 5722 5724 5725 5724 5724 5723 5723 5723 5723 5722 5723 5723 5724 5725 5727 5727 5728 5728 5729 5728 5729 5729 5726 5725 5724 5725 5726 5727 5728
5741 5738 5736 5734 5732 5729 5728 5726 5724 5723 5721 5720 5718 5717 5716 5717 5717 5718 5719 5719 5718 5717 5716 5716 5717 5718 5719 5721 5722 5723 5724 5725 5726 5727 5727 5727 5728 5726 5725 5724 5725 5726 5727
5737 5733 5732 5733 5728 5724 5721 5719 5719 5716 5714 5713 5711 5710 5709 5708 5709 5710 5713 5714 5711 5712 5713 5713 5713 5714 5714 5715 5717 5719 5722 5722 5723 5724 5724 5725 5726 5727 5726 5725 5725 5725 5725
5732 5729 5727 5725 5723 5720 5716 5714 5712 5709 5707 5707 5706 5704 5701 5701 5702 5703 5705 5705 5704 5706 5707 5707 5709 5707 5707 5708 5711 5714 5717 5720 5721 5723 5724 5724 5724 5725 5726 5726 5724 5724 5724
5728 5726 5723 5720 5717 5715 5713 5710 5708 5706 5705 5703 5701 5696 5694 5695 5694 5695 5698 5697 5698 5700 5700 5699 5698 5698 5699 5701 5705 5709 5712 5717 5719 5721 5722 5723 5723 5723 5724 5724 5724 5724 5724
5725 5722 5719 5716 5713 5710 5709 5706 5704 5702 5699 5698 5695 5690 5688 5687 5687 5687 5690 5690 5690 5693 5692 5693 5693 5694 5694 5697 5697 5701 5709 5715 5717 5718 5719 5720 5722 5722 5721 5721 5722 5723 5726
5722 5720 5717 5713 5711 5708 5705 5701 5697 5694 5693 5691 5688 5684 5682 5681 5680 5684 5681 5683 5685 5684 5684 5685 5685 5686 5689 5691 5689 5691 5696 5705 5709 5715 5715 5715 5716 5718 5718 5718 5719 5720 5722
5722 5720 5718 5714 5710 5706 5701 5699 5695 5691 5690 5690 5686 5683 5679 5676 5675 5674 5674 5675 5676 5678 5681 5678 5678 5678 5680 5684 5685 5682 5683 5688 5695 5705 5707 5709 5709 5710 5712 5714 5715 5717 5718
5725 5723 5718 5713 5708 5704 5699 5696 5692 5688 5685 5683 5680 5679 5675 5673 5671 5670 5670 5669 5669 5672 5672 5672 5676 5673 5671 5675 5679 5678 5677 5678 5677 5686 5696 5701 5703 5703 5706 5708 5711 5713 5714
5728 5724 5720 5713 5707 5702 5698 5694 5689 5687 5685 5683 5679 5676 5672 5673 5669 5668 5666 5665 5664 5665 5665 5663 5664 5664 5666 5667 5669 5671 5672 5673 5673 5672 5678 5686 5692 5697 5700 5702 5706 5708 5710
5728 5724 5719 5712 5706 5702 5697 5693 5687 5684 5680 5677 5674 5673 5673 5673 5670 5667 5663 5661 5660 5660 5658 5657 5656 5658 5657 5657 5658 5662 5664 5665 5667 5668 5670 5674 5680 5688 5692 5695 5700 5703 5705